WGS F2 (USA 204)

Last updated on Fri Jul 10 2026 00:03:02 GMT+0000 (Coordinated Universal Time)

1 34713U 09017A 26189.84767019 .00000082 00000+0 00000+0 0 9991 2 34713 0.0168 29.2801 0000676 191.0688 69.1038 1.00270804 45838
UTC large
Height (km)
Speed (km/s)
/
Latitude / Longitude
Inclination (degrees)
Orbital Period (minutes)
Azimuth
Elevation
Range (km)
Doppler Factor

Next 0 passes for location: London (51.5072 / 0.1276)

No passes found over London.
WGS F2 (USA 204)